Location: Kumla
(59.1265°N, 15.1401°E)
Time: 02:13:35
(UTC+01:00)

Vanguard 1 - Pass Details

Date: 05 December 2023
Orbit: 653 x 3825 km, 34.3° (Epoch: 03 March)

Event Time Altitude Azimuth Distance (km) Brightness Sun altitude
Rises 17:55:06 0° 215° (SW) 5,977 14.8 -19.7°
Reaches altitude 10° 17:59:27 10° 204° (SSW) 5,407 14.3 -20.3°
Maximum altitude 18:12:40 28° 155° (SSE) 5,066 13.5 -21.9°
Enters shadow 18:24:34 17° 117° (ESE) 6,254 13.6 -23.5°
Drops below altitude 10° 18:29:27 10° 108° (ESE) 6,932 - -24.1°
Sets 18:36:07 0° 99° (E) 7,919 - -24.9°
